www.pogodaiklimat.ru

Погода и климат >> Архив погоды >> Парагвай >> Пилар


ПОГОДА в Пиларе

  • Прогноз погоды в Пиларе
  • Монитор погоды в Пиларе

АРХИВ ПОГОДЫ в Пиларе

Время (UTC), дата Ветер
(напр.,м/с)
 
Видим.   Явления Облачность Т
(С)
Тd
(С)
f
(%)
Тe
(С)
Тes
(С)
Комфортность P
(гПа)
Po
(гПа)
Тmin
(С)
Tmax
(С)
R
(мм)
R24
(мм)
S
(см)
12 12.05 Ю 2 20 км 10/10 800 м
[Sc]
+15.6 +12.7 83 +15 +15 1019.6 1012.6 +15.6
15 12.05 Ю 3 20 км 10/4 800 м
[Cu Sc Ac und]
+16.8 +12.0 73 +17 +18 1019.6 1012.7
18 12.05 Ю 2 20 км 10/5 800 м
[Sc Ac As]
+16.8 +13.6 81 +17 +18 1018.7 1011.8
21 12.05 Ю 1 20 км {морось} 10/5 500 м
[Sc Ac As]
+16.8 +13.8 82 +18 +18 1019.0 1012.1 0.8
00 13.05 Ю 1 20 км 10/10 800 м
[Sc]
+15.0 +12.9 87 +15 +15 1020.0 1013.0 +19.8
09 13.05 штиль 0 20 км 8/3 800 м
[Cu Sc Ac As]
+13.8 +12.1 89 +13 +13 1021.1 1014.1
12 13.05 штиль 0 20 км 6/6 600 м
[Sc]
+14.6 +12.0 84 +14 +15 1022.2 1015.2 +13.6 0.8
15 13.05 Ю 3 20 км 3/3 1200 м
[Cu med, cong]
+18.4 +12.6 69 +19 +25 1022.9 1016.0
18 13.05 Ю 2 20 км 4/4 1200 м
[Cu med, cong]
+21.2 +11.9 55 +23 +27 комфорт 1022.6 1015.8
21 13.05 Ю 1 20 км 1/1 1200 м
[Cu med, cong]
+19.6 +15.2 76 +23 +23 комфорт 1022.8 1015.9
03 14.05 Ю 1 20 км ясно +14.4 +11.8 84 +15 +15 1020.6 1013.6
09 14.05 Ю 3 20 км ясно +13.8 +10.7 82 +13 +13 1024.7 1017.7
12 14.05 Ю 1 20 км ясно +14.4 +9.7 73 +15 +17 1025.5 1018.5 +13.2
15 14.05 Ю 3 20 км ясно +18.8 +10.1 57 +20 +29 1025.4 1018.5
18 14.05 Ю 2 20 км 3/3 1200 м
[Cu hum]
+21.6 +11.5 53 +24 +29 комфорт 1023.6 1016.8
21 14.05 Ю 1 20 км ясно +20.6 +12.1 58 +24 +24 комфорт 1022.9 1016.1
00 15.05 штиль 0 20 км ясно +17.0 +13.4 79 +17 +17 1023.2 1016.3 +21.8
03 15.05 штиль 0 20 км ясно +16.0 +12.5 80 +16 +16 1023.8 1016.9
09 15.05 Ю 2 20 км ясно +15.0 +13.2 89 +15 +15 1022.7 1015.7
12 15.05 Ю 2 20 км 5/5 800 м
[Sc]
+15.6 +12.7 83 +16 +17 1024.0 1017.0 +14.4
15 15.05 Ю 2 20 км 1/1 1200 м
[Cu hum]
+19.8 +11.7 60 +22 +31 комфорт 1024.2 1017.3
18 15.05 Ю 3 20 км 3/3 1200 м
[Cu med, cong]
+22.6 +14.5 60 +26 +31 жарко 1022.7 1015.9
21 15.05 Ю 3 20 км 3/3 1200 м
[Sc diur, vesp]
+21.8 +15.4 67 +25 +25 комфорт 1020.9 1014.1
00 16.05 Ю 1 20 км 3/3 1020 м
[Cu Sc]
+19.2 +15.3 78 +22 +22 комфорт 1021.8 1014.9 +23.0
06 16.05 ЮВ 1 20 км ясно +16.8 +13.8 82 +18 +18 1021.5 1014.6
09 16.05 ЮВ 2 20 км ясно +15.6 +12.7 83 +16 +16 1020.7 1013.7
12 16.05 ЮВ 1 20 км ясно +16.4 +13.6 84 +17 +19 1021.0 1014.0 +15.6
15 16.05 В 2 20 км ясно +22.6 +12.8 54 +25 +35 комфорт 1021.9 1015.1
18 16.05 В 2 20 км ясно +24.8 +16.8 61 +28 +36 жарко 1018.7 1012.0
21 16.05 В 2 20 км 1/1 1200 м
[Cu med, cong]
+24.2 +15.6 59 +27 +27 жарко 1017.7 1010.9
00 17.05 штиль 0 20 км 4/4 1020 м
[Cu Sc]
+20.0 +14.9 72 +22 +22 комфорт 1018.3 1011.4 +24.8
09 17.05 В 2 20 км 4/4 1020 м
[Cu Sc]
+18.0 +14.7 81 +19 +19 1016.8 1009.9
12 17.05 В 2 20 км 1/0
[Ci]
+19.2 +15.5 79 +22 +23 комфорт 1017.0 1010.1 +16.4
15 17.05 В 3 20 км 4/1 1200 м
[Cu hum Ci]
+24.6 +17.2 63 +28 +35 душно 1016.4 1009.7
18 17.05 С 4 20 км 4/3 1200 м
[Cu med, cong Ci]
+25.8 +16.1 55 +29 +33 душно 1014.1 1006.4
21 17.05 С 2 20 км 3/3 1020 м
[Sc diur, vesp]
+25.6 +16.1 56 +29 +29 душно 1012.3 1005.6
00 18.05 С 2 20 км ясно +21.6 +17.4 77 +26 +26 душно 1012.5 1005.7 +26.5
09 18.05 С 3 20 км 3/3 1020 м
[Cu Sc]
+19.8 +16.8 83 +23 +23 комфорт 1012.5 1005.7
12 18.05 С 4 20 км 1/1 1200 м
[Cu hum]
+20.8 +17.9 83 +25 +26 комфорт 1013.9 1007.1 +19.4
15 18.05 С 4 20 км ясно +25.0 +16.9 61 +29 +35 душно 1015.6 1008.9
18 18.05 СВ 2 20 км 4/4 1020 м
[Cu Sc]
+27.2 +17.5 55 +31 +35 душно 1013.9 1007.2
21 18.05 В 1 20 км 3/3 1020 м
[Cu Sc]
+26.2 +18.0 61 +31 +31 очень
душно
1012.9 1006.2
00 19.05 штиль 0 20 км 6/6 800 м
[Cu Sc]
+22.8 +16.6 68 +27 +27 душно 1013.9 1007.1 +27.2

 

Местоположение метеостанции Пилар (Парагвай): широта -26.85 долгота -58.31 высота над уровнем моря 56 м.

В архиве по умолчанию представлена погода в Пиларе за последнюю неделю. Архивные данные за месяц целиком и за предыдущие месяцы, начиная с января 2011 года, Вы можете получить, выбрав интересующий диапазон дат из раскрывающегося списка и нажав кнопку "Ввод!".


*Определитесь, кто Вы:
робот инопланетянин человек

Внимание! Время в таблицах - всемирное. Для получения местного времени необходимо прибавить поправку, которая равна -4 ч.

Смотрите также архив погоды в соседних городах и на ближайших метеорологических станциях:

Погода в Формосе (Аргентина) (73 км)
Погода в Корриентесе (Аргентина) (80 км)
Погода в Ресистенсии (Аргентина) (99 км)
Погода в Сан Хуан Батистута (Парагвай) (117 км)
Погода в Куйкуйо (Парагвай) (150 км)
Погода в Парагуари (Парагвай) (180 км)
Погода в Асунсьоне (Парагвай) (195 км)
Погода в Каасапе (Парагвай) (209 км)
Погода в Пресиденсиа-Роке-Саэнс-Пеньи (Аргентина) (216 км)
Погода в Вильяррике (Парагвай) (224 км)

Пояснения к столбцам:

Ветер - указаны скорость ветра в м/с - средняя за 10 мин, порывы в срок и между сроками (в фигурных скобках) и направление, откуда дует ветер: С - северный, СВ - северо-восточный, В - восточный, ЮВ - юго-восточный, Ю - южный, ЮЗ - юго-западный, З - западный, СЗ - северо-западный.
Видимость - горизонтальная дальность видимости в метрах или километрах. При видимости от 1 до 10 км при отсутствии осадков обычно наблюдается дымка, при ухудшении видимости до 1 км и менее - туман. В сухую погоду видимость может ухудшаться дымом, пылью или мглою.
Явления - указаны атмосферные явления, наблюдавшиеся в срок или в последний час перед сроком; фигурными скобками обозначены явления, наблюдавшиеся между сроками (за 1-3 часа до срока); квадратными скобками обозначены град или гололедные отложения с указанием их диаметра в мм.
Облачность - указаны через наклонную черту общая и нижняя облачность в баллах и высота нижней границы облаков в метрах; квадратными скобками обозначены формы облаков: Ci - перистые, Cs - перисто-слоистые, Cc - перисто-кучевые, Ac - высококучевые, As - высокослоистые, Sc - слоисто-кучевые, Ns - слоисто-дождевые, Cu - кучевые, Cb - кучево-дождевые. Подробнее классификацию облаков см. в Атласе облаков (PDF).
T - Температура воздуха - температура, измеренная на высоте 2 м над землей.
Td - Температура точки росы - температура, при понижении до которой содержащийся в воздухе водяной пар достигнет насыщения.
f - Относительная влажность воздуха - влажноcть воздуха, измеренная на высоте 2 м над землей.
Te - Эффективная температура - температура, которую ощущает одетый по сезону человек в тени. Характеристика душности погоды. При расчете учитывается влияние влажности воздуха и скорости ветра на теплоощущения человека.
Tes - Эффективная температура на солнце - температура, которую ощущает человек, с поправкой на солнечный нагрев. Характеристика знойности погоды. Зависит от высоты солнца над горизонтом, облачности и скорости ветра. Ночью, в пасмурную погоду, а также при ветре 12 м/с и более поправка равна нулю.
P - Атмосферное давление - приведенное к уровню моря атмосферное давление.
Po - Атмосферное давление - измеренное на уровне метеостанции атмосферное давление.
Tmin - Минимальная температура - минимум температуры воздуха на высоте 2 м над землей.
Tmax - Максимальная температура - максимум температуры воздуха на высоте 2 м над землей.
R - Количество осадков - Количество выпавших осадков за период времени, мм. При наведении курсора мыши на число - период времени, за который выпало указанное количество осадков.
R24 - Количество осадков - Количество выпавших осадков за 24 часа, мм.
S - Снежный покров - Высота снежного покрова, см. При наведении курсора мыши на число - состояние снежного покрова и степень покрытия местности в баллах.